BREEZE-M DEB [TANK] (47243 NORAD) Tracking and Keplerian Element Data

This shows tracking and keplerian element data for the satellite.

Feedback or suggestion? Click here.




ElementValue
Catalog47243
NameBREEZE-M DEB [TANK]
Epoch Orbit62
Epoch Day12.51991258
Epoch Year2021
RAAN128.8184
Inclination60.0025
Eccentricity0.7283633
Argument of Perigee1.3952
Mean Anonmoly359.6943
Mean Motion2.19723804
Decay Rate-1.94E-06
L11 47243U 20097B 21012.51991258 -.00000194 00000-0 00000-0 0 9999
L22 47243 60.0025 128.8184 7283633 1.3952 359.6943 2.19723804 622

Live tracking and technical data element details for BREEZE-M DEB [TANK] (NORAD 47243). BREEZE-M DEB [TANK] can be tracked NOW for your location showing map with azimuth and elevation plus other details from your city location.

Track the satellite on the map from your city or location and see movement details for azimuth, elevation, latitude, longitude, range, height, and movement on the map or in text.







IsCatalogInMostPopularTable: catalog: 47243, numindb: 32
Update: records affected: 1



GetName: 47243 BREEZE-M DEB [TANK]

Hit Count: updated at: Fri, 16 Apr 2021 11:35:10 GMT